Time,TemperatureF,DewpointF,PressureIn,WindDirection,WindDirectionDegrees,WindSpeedMPH,WindSpeedGustMPH,Humidity,HourlyPrecipIn,Conditions,Clouds,dailyrainin,SoftwareType,DateUTC
2013-06-28 00:11:00,71.7,69.0,29.72,WNW,291,0.0,1.0,92,0.00,,,0.00,weatherlink.com 1.10,2013-06-28 05:11:00,
2013-06-28 00:26:00,72.1,70.0,29.71,WNW,291,0.0,0.0,94,0.00,,,0.00,weatherlink.com 1.10,2013-06-28 05:26:00,
2013-06-28 00:41:00,71.9,70.0,29.71,WNW,302,0.0,0.0,94,0.00,,,0.00,weatherlink.com 1.10,2013-06-28 05:41:00,
2013-06-28 00:56:00,71.6,70.0,29.71,WNW,299,2.0,3.0,94,0.00,,,0.00,weatherlink.com 1.10,2013-06-28 05:56:00,
2013-06-28 01:11:00,71.3,69.0,29.70,WNW,293,1.0,2.0,93,0.00,,,0.00,weatherlink.com 1.10,2013-06-28 06:11:00,
2013-06-28 01:26:00,70.5,68.0,29.70,WNW,294,1.0,2.0,93,0.00,,,0.00,weatherlink.com 1.10,2013-06-28 06:26:00,
2013-06-28 01:41:00,70.3,68.0,29.70,WNW,283,0.0,2.0,92,0.00,,,0.00,weatherlink.com 1.10,2013-06-28 06:41:00,
2013-06-28 01:56:00,70.3,69.0,29.70,West,271,0.0,1.0,94,0.00,,,0.00,weatherlink.com 1.10,2013-06-28 06:56:00,
2013-06-28 02:11:00,69.7,68.0,29.70,West,271,0.0,0.0,94,0.00,,,0.00,weatherlink.com 1.10,2013-06-28 07:11:00,
2013-06-28 02:26:00,69.4,68.0,29.70,West,278,1.0,2.0,94,0.00,,,0.00,weatherlink.com 1.10,2013-06-28 07:26:00,
2013-06-28 02:41:00,69.5,67.0,29.70,WNW,285,2.0,3.0,92,0.00,,,0.00,weatherlink.com 1.10,2013-06-28 07:41:00,
2013-06-28 02:56:00,69.4,67.0,29.70,West,280,0.0,2.0,91,0.00,,,0.00,weatherlink.com 1.10,2013-06-28 07:56:00,
2013-06-28 03:11:00,69.3,66.0,29.70,West,278,1.0,3.0,90,0.00,,,0.00,weatherlink.com 1.10,2013-06-28 08:11:00,
2013-06-28 03:26:00,69.0,66.0,29.69,West,277,2.0,3.0,89,0.00,,,0.00,weatherlink.com 1.10,2013-06-28 08:26:00,
2013-06-28 03:41:00,69.1,65.0,29.69,WNW,287,2.0,4.0,87,0.00,,,0.00,weatherlink.com 1.10,2013-06-28 08:41:00,
2013-06-28 03:56:00,68.8,65.0,29.69,West,273,1.0,4.0,86,0.00,,,0.00,weatherlink.com 1.10,2013-06-28 08:56:00,
2013-06-28 04:11:00,68.7,64.0,29.68,West,279,1.0,4.0,86,0.00,,,0.00,weatherlink.com 1.10,2013-06-28 09:11:00,
2013-06-28 04:26:00,68.7,64.0,29.68,WNW,288,2.0,4.0,86,0.00,,,0.00,weatherlink.com 1.10,2013-06-28 09:26:00,
2013-06-28 04:41:00,68.7,64.0,29.68,WNW,286,3.0,5.0,86,0.00,,,0.00,weatherlink.com 1.10,2013-06-28 09:41:00,
2013-06-28 04:56:00,68.8,65.0,29.68,NNW,340,5.0,5.0,87,0.00,,,0.00,weatherlink.com 1.10,2013-06-28 09:56:00,
2013-06-28 05:11:00,69.7,65.0,29.69,WNW,290,4.0,10.0,85,0.00,,,0.00,weatherlink.com 1.10,2013-06-28 10:11:00,
2013-06-28 05:26:00,69.9,66.0,29.70,WNW,283,2.0,6.0,86,0.00,,,0.00,weatherlink.com 1.10,2013-06-28 10:26:00,
2013-06-28 05:41:00,70.2,66.0,29.70,West,281,4.0,5.0,87,0.00,,,0.00,weatherlink.com 1.10,2013-06-28 10:41:00,
2013-06-28 05:56:00,69.9,66.0,29.71,NE,43,1.0,2.0,88,0.00,,,0.00,weatherlink.com 1.10,2013-06-28 10:56:00,
2013-06-28 06:11:00,69.3,66.0,29.71,WSW,255,1.0,2.0,88,0.00,,,0.00,weatherlink.com 1.10,2013-06-28 11:11:00,
2013-06-28 06:26:00,69.1,66.0,29.72,West,278,0.0,1.0,89,0.00,,,0.00,weatherlink.com 1.10,2013-06-28 11:26:00,
2013-06-28 06:41:00,70.0,67.0,29.72,West,269,1.0,1.0,89,0.00,,,0.00,weatherlink.com 1.10,2013-06-28 11:41:00,
2013-06-28 06:56:00,70.9,67.0,29.72,WNW,290,2.0,2.0,87,0.00,,,0.00,weatherlink.com 1.10,2013-06-28 11:56:00,
2013-06-28 07:11:00,71.4,67.0,29.72,WNW,285,1.0,4.0,86,0.00,,,0.00,weatherlink.com 1.10,2013-06-28 12:11:00,
2013-06-28 07:26:00,71.6,67.0,29.73,WNW,297,3.0,6.0,84,0.00,,,0.00,weatherlink.com 1.10,2013-06-28 12:26:00,
2013-06-28 07:41:00,72.7,67.0,29.73,West,267,2.0,5.0,83,0.00,,,0.00,weatherlink.com 1.10,2013-06-28 12:41:00,
2013-06-28 07:56:00,73.1,67.0,29.73,WNW,290,1.0,6.0,82,0.00,,,0.00,weatherlink.com 1.10,2013-06-28 12:56:00,
2013-06-28 08:11:00,74.2,65.0,29.73,NW,321,7.0,9.0,73,0.00,,,0.00,weatherlink.com 1.10,2013-06-28 13:11:00,
2013-06-28 08:26:00,74.6,65.0,29.74,WNW,302,8.0,10.0,72,0.00,,,0.00,weatherlink.com 1.10,2013-06-28 13:26:00,
2013-06-28 08:41:00,75.3,65.0,29.74,NNW,329,5.0,10.0,71,0.00,,,0.00,weatherlink.com 1.10,2013-06-28 13:41:00,
2013-06-28 08:56:00,75.7,64.0,29.74,NW,314,4.0,11.0,68,0.00,,,0.00,weatherlink.com 1.10,2013-06-28 13:56:00,
2013-06-28 09:11:00,76.3,65.0,29.74,WNW,297,6.0,11.0,68,0.00,,,0.00,weatherlink.com 1.10,2013-06-28 14:11:00,
2013-06-28 09:27:00,77.0,65.0,29.74,WNW,291,7.0,10.0,67,0.00,,,0.00,weatherlink.com 1.10,2013-06-28 14:27:00,
2013-06-28 09:42:00,77.5,66.0,29.74,WNW,297,8.0,11.0,67,0.00,,,0.00,weatherlink.com 1.10,2013-06-28 14:42:00,
2013-06-28 09:57:00,78.0,66.0,29.74,WNW,297,7.0,11.0,66,0.00,,,0.00,weatherlink.com 1.10,2013-06-28 14:57:00,
2013-06-28 10:12:00,78.6,65.0,29.74,WNW,291,7.0,14.0,64,0.00,,,0.00,weatherlink.com 1.10,2013-06-28 15:12:00,
2013-06-28 10:27:00,79.3,66.0,29.73,NW,312,5.0,13.0,64,0.00,,,0.00,weatherlink.com 1.10,2013-06-28 15:27:00,
2013-06-28 10:42:00,79.9,64.0,29.73,WNW,302,13.0,14.0,59,0.00,,,0.00,weatherlink.com 1.10,2013-06-28 15:42:00,
2013-06-28 10:57:00,80.2,65.0,29.73,WNW,288,7.0,14.0,61,0.00,,,0.00,weatherlink.com 1.10,2013-06-28 15:57:00,
2013-06-28 11:12:00,80.7,63.0,29.73,NW,309,14.0,23.0,55,0.00,,,0.00,weatherlink.com 1.10,2013-06-28 16:12:00,
2013-06-28 11:27:00,81.2,63.0,29.73,NW,307,11.0,19.0,54,0.00,,,0.00,weatherlink.com 1.10,2013-06-28 16:27:00,
2013-06-28 11:42:00,81.5,65.0,29.73,NW,316,10.0,18.0,57,0.00,,,0.00,weatherlink.com 1.10,2013-06-28 16:42:00,
2013-06-28 11:57:00,81.7,63.0,29.73,WNW,295,8.0,22.0,53,0.00,,,0.00,weatherlink.com 1.10,2013-06-28 16:57:00,
2013-06-28 12:12:00,82.2,63.0,29.73,WNW,289,15.0,25.0,52,0.00,,,0.00,weatherlink.com 1.10,2013-06-28 17:12:00,
2013-06-28 12:27:00,82.0,62.0,29.72,WNW,295,18.0,23.0,50,0.00,,,0.00,weatherlink.com 1.10,2013-06-28 17:27:00,
2013-06-28 12:42:00,82.2,61.0,29.73,NW,314,16.0,23.0,48,0.00,,,0.00,weatherlink.com 1.10,2013-06-28 17:42:00,
2013-06-28 12:57:00,82.4,61.0,29.72,WNW,299,16.0,27.0,48,0.00,,,0.00,weatherlink.com 1.10,2013-06-28 17:57:00,
2013-06-28 13:12:00,82.5,60.0,29.72,WNW,291,11.0,24.0,47,0.00,,,0.00,weatherlink.com 1.10,2013-06-28 18:12:00,
2013-06-28 13:27:00,83.3,62.0,29.71,NW,316,9.0,23.0,48,0.00,,,0.00,weatherlink.com 1.10,2013-06-28 18:27:00,
2013-06-28 13:42:00,83.3,60.0,29.71,WNW,288,11.0,28.0,45,0.00,,,0.00,weatherlink.com 1.10,2013-06-28 18:42:00,
2013-06-28 13:57:00,83.3,60.0,29.71,WNW,299,19.0,29.0,45,0.00,,,0.00,weatherlink.com 1.10,2013-06-28 18:57:00,
2013-06-28 14:12:00,83.6,60.0,29.70,WNW,289,14.0,24.0,45,0.00,,,0.00,weatherlink.com 1.10,2013-06-28 19:12:00,
2013-06-28 14:27:00,83.9,61.0,29.70,NW,315,14.0,21.0,46,0.00,,,0.00,weatherlink.com 1.10,2013-06-28 19:27:00,
2013-06-28 14:42:00,84.0,59.0,29.69,NW,321,13.0,29.0,43,0.00,,,0.00,weatherlink.com 1.10,2013-06-28 19:42:00,
2013-06-28 14:57:00,84.0,59.0,29.69,NW,323,13.0,30.0,43,0.00,,,0.00,weatherlink.com 1.10,2013-06-28 19:57:00,
2013-06-28 15:12:00,84.4,58.0,29.68,WNW,299,19.0,30.0,41,0.00,,,0.00,weatherlink.com 1.10,2013-06-28 20:12:00,
2013-06-28 15:27:00,84.4,58.0,29.68,WNW,287,16.0,30.0,40,0.00,,,0.00,weatherlink.com 1.10,2013-06-28 20:27:00,
2013-06-28 15:42:00,84.8,59.0,29.68,NW,307,17.0,27.0,42,0.00,,,0.00,weatherlink.com 1.10,2013-06-28 20:42:00,
2013-06-28 15:57:00,84.8,59.0,29.68,WNW,293,21.0,24.0,41,0.00,,,0.00,weatherlink.com 1.10,2013-06-28 20:57:00,
2013-06-28 16:12:00,84.7,57.0,29.68,NNW,334,14.0,24.0,39,0.00,,,0.00,weatherlink.com 1.10,2013-06-28 21:12:00,
2013-06-28 16:27:00,85.0,59.0,29.68,WNW,294,16.0,26.0,42,0.00,,,0.00,weatherlink.com 1.10,2013-06-28 21:27:00,
2013-06-28 16:42:00,84.9,58.0,29.68,NW,318,10.0,35.0,40,0.00,,,0.00,weatherlink.com 1.10,2013-06-28 21:42:00,
2013-06-28 16:57:00,84.9,59.0,29.67,WNW,283,11.0,30.0,42,0.00,,,0.00,weatherlink.com 1.10,2013-06-28 21:57:00,
2013-06-28 17:12:00,84.8,61.0,29.67,WNW,293,17.0,29.0,44,0.00,,,0.00,weatherlink.com 1.10,2013-06-28 22:12:00,
2013-06-28 17:27:00,84.8,59.0,29.66,NW,304,13.0,24.0,42,0.00,,,0.00,weatherlink.com 1.10,2013-06-28 22:27:00,
2013-06-28 17:42:00,84.9,61.0,29.66,NNW,338,12.0,23.0,44,0.00,,,0.00,weatherlink.com 1.10,2013-06-28 22:42:00,
2013-06-28 17:57:00,84.8,60.0,29.65,NW,316,10.0,26.0,43,0.00,,,0.00,weatherlink.com 1.10,2013-06-28 22:57:00,
2013-06-28 18:12:00,84.6,60.0,29.65,WNW,295,12.0,26.0,43,0.00,,,0.00,weatherlink.com 1.10,2013-06-28 23:12:00,
2013-06-28 18:27:00,84.6,62.0,29.65,WNW,300,10.0,20.0,46,0.00,,,0.00,weatherlink.com 1.10,2013-06-28 23:27:00,
2013-06-28 18:42:00,84.1,61.0,29.64,WNW,303,22.0,28.0,46,0.00,,,0.00,weatherlink.com 1.10,2013-06-28 23:42:00,
2013-06-28 18:58:00,83.8,60.0,29.64,WNW,302,7.0,22.0,45,0.00,,,0.00,weatherlink.com 1.10,2013-06-28 23:58:00,
2013-06-28 19:13:00,83.6,59.0,29.64,WNW,289,19.0,22.0,44,0.00,,,0.00,weatherlink.com 1.10,2013-06-29 00:13:00,
2013-06-28 19:28:00,83.2,60.0,29.64,NW,309,13.0,19.0,45,0.00,,,0.00,weatherlink.com 1.10,2013-06-29 00:28:00,
2013-06-28 19:43:00,82.8,60.0,29.64,NW,307,19.0,20.0,46,0.00,,,0.00,weatherlink.com 1.10,2013-06-29 00:43:00,
2013-06-28 19:58:00,82.4,60.0,29.64,WNW,289,11.0,19.0,46,0.00,,,0.00,weatherlink.com 1.10,2013-06-29 00:58:00,
2013-06-28 20:13:00,81.6,61.0,29.64,WNW,301,5.0,14.0,49,0.00,,,0.00,weatherlink.com 1.10,2013-06-29 01:13:00,
2013-06-28 20:28:00,80.6,60.0,29.65,NW,323,8.0,14.0,50,0.00,,,0.00,weatherlink.com 1.10,2013-06-29 01:28:00,
2013-06-28 20:43:00,79.6,59.0,29.65,NW,313,9.0,13.0,50,0.00,,,0.00,weatherlink.com 1.10,2013-06-29 01:43:00,
2013-06-28 20:58:00,78.1,59.0,29.65,WNW,290,4.0,10.0,53,0.00,,,0.00,weatherlink.com 1.10,2013-06-29 01:58:00,
2013-06-28 21:13:00,76.8,59.0,29.65,WNW,285,4.0,7.0,54,0.00,,,0.00,weatherlink.com 1.10,2013-06-29 02:13:00,
2013-06-28 21:28:00,75.9,58.0,29.65,NW,304,4.0,7.0,55,0.00,,,0.00,weatherlink.com 1.10,2013-06-29 02:28:00,
2013-06-28 21:43:00,75.0,59.0,29.65,WNW,297,2.0,5.0,58,0.00,,,0.00,weatherlink.com 1.10,2013-06-29 02:43:00,
2013-06-28 21:58:00,74.9,59.0,29.66,WNW,283,3.0,8.0,58,0.00,,,0.00,weatherlink.com 1.10,2013-06-29 02:58:00,
2013-06-28 22:13:00,74.2,59.0,29.66,WNW,284,4.0,6.0,59,0.00,,,0.00,weatherlink.com 1.10,2013-06-29 03:13:00,
2013-06-28 22:28:00,73.7,58.0,29.66,WNW,291,4.0,8.0,59,0.00,,,0.00,weatherlink.com 1.10,2013-06-29 03:28:00,
2013-06-28 22:43:00,73.1,58.0,29.66,WNW,291,6.0,8.0,59,0.00,,,0.00,weatherlink.com 1.10,2013-06-29 03:43:00,
2013-06-28 22:58:00,72.4,58.0,29.66,WNW,302,3.0,4.0,61,0.00,,,0.00,weatherlink.com 1.10,2013-06-29 03:58:00,
2013-06-28 23:13:00,72.1,58.0,29.66,WNW,294,4.0,7.0,62,0.00,,,0.00,weatherlink.com 1.10,2013-06-29 04:13:00,
2013-06-28 23:28:00,71.3,58.0,29.66,WNW,300,5.0,5.0,64,0.00,,,0.00,weatherlink.com 1.10,2013-06-29 04:28:00,
2013-06-28 23:43:00,70.8,58.0,29.66,NW,304,3.0,5.0,64,0.00,,,0.00,weatherlink.com 1.10,2013-06-29 04:43:00,
2013-06-28 23:58:00,70.3,58.0,29.66,WNW,298,2.0,4.0,65,0.00,,,0.00,weatherlink.com 1.10,2013-06-29 04:58:00,